TimeEDT,TemperatureF,Dew PointF,Humidity,Sea Level PressureIn,VisibilityMPH,Wind Direction,Wind SpeedMPH,Gust SpeedMPH,PrecipitationIn,Events,Conditions,WindDirDegrees,DateUTC
12:58 AM,70.5,67.5,90,29.90,8.0,West,9.2,-,N/A,,Scattered Clouds,260,2013-06-25 04:58:00
1:58 AM,69.8,67.1,91,29.87,10.0,SW,5.8,-,N/A,,Mostly Cloudy,230,2013-06-25 05:58:00
2:58 AM,70.3,66.9,89,29.87,10.0,WSW,9.2,-,N/A,,Mostly Cloudy,250,2013-06-25 06:58:00
3:58 AM,68.9,66.9,93,29.87,10.0,WSW,5.8,-,N/A,,Mostly Cloudy,250,2013-06-25 07:58:00
4:58 AM,69.1,66.4,91,29.87,10.0,WSW,9.2,-,N/A,,Overcast,250,2013-06-25 08:58:00
5:58 AM,69.4,66.4,90,29.87,10.0,WSW,5.8,-,N/A,,Mostly Cloudy,240,2013-06-25 09:58:00
6:58 AM,71.2,67.1,87,29.87,10.0,WSW,5.8,-,N/A,,Scattered Clouds,240,2013-06-25 10:58:00
7:58 AM,74.7,67.5,78,29.87,10.0,WSW,8.1,-,N/A,,Mostly Cloudy,250,2013-06-25 11:58:00
8:58 AM,78.1,68.2,71,29.86,10.0,WSW,6.9,-,N/A,,Mostly Cloudy,250,2013-06-25 12:58:00
9:55 AM,81.3,68.5,65,29.85,10.0,WSW,9.2,-,N/A,,Mostly Cloudy,250,2013-06-25 13:55:00
10:55 AM,84.0,70.0,63,29.85,10.0,West,9.2,-,N/A,,Mostly Cloudy,260,2013-06-25 14:55:00
11:58 AM,86.5,70.7,59,29.85,10.0,WSW,6.9,-,N/A,,Mostly Cloudy,250,2013-06-25 15:58:00
12:58 PM,88.3,70.5,55,29.83,10.0,West,6.9,-,N/A,,Mostly Cloudy,270,2013-06-25 16:58:00
1:58 PM,89.4,70.0,53,29.80,10.0,WSW,10.4,-,N/A,,Mostly Cloudy,240,2013-06-25 17:58:00
2:58 PM,90.0,70.2,52,29.77,10.0,SW,12.7,-,N/A,,Mostly Cloudy,230,2013-06-25 18:58:00
3:58 PM,90.1,67.3,47,29.75,10.0,SW,11.5,-,N/A,,Mostly Cloudy,230,2013-06-25 19:58:00
4:58 PM,89.6,68.4,49,29.74,10.0,SW,9.2,-,N/A,,Mostly Cloudy,220,2013-06-25 20:58:00
5:58 PM,86.4,67.1,52,29.72,10.0,SSW,8.1,-,N/A,,Mostly Cloudy,200,2013-06-25 21:58:00
6:58 PM,84.9,67.3,55,29.72,10.0,SSW,6.9,-,N/A,,Mostly Cloudy,210,2013-06-25 22:58:00
7:58 PM,83.1,67.6,59,29.71,8.0,North,9.2,-,N/A,Rain-Thunderstorm,Light Rain Showers,360,2013-06-25 23:58:00
8:11 PM,80.6,68.0,65,29.72,7.0,NNW,8.1,21.9,N/A,Rain-Thunderstorm,Light Thunderstorms and Rain,330,2013-06-26 00:11:00
8:50 PM,71.6,69.8,94,29.76,2.0,WNW,9.2,-,N/A,Rain-Thunderstorm,Heavy Thunderstorms and Rain,300,2013-06-26 00:50:00
8:58 PM,72.0,70.2,94,29.76,2.0,NNW,9.2,-,0.13,Rain-Thunderstorm,Thunderstorms and Rain,330,2013-06-26 00:58:00
9:16 PM,71.6,69.8,94,29.73,6.0,North,12.7,-,N/A,Rain-Thunderstorm,Light Thunderstorms and Rain,10,2013-06-26 01:16:00
9:58 PM,70.9,70.2,98,29.76,5.0,West,5.8,-,0.13,Rain-Thunderstorm,Light Rain Showers,270,2013-06-26 01:58:00
10:58 PM,70.5,70.2,99,29.74,5.0,SE,4.6,-,0.02,Rain,Light Rain Showers,130,2013-06-26 02:58:00
11:21 PM,69.8,69.8,100,29.73,3.0,South,4.6,-,N/A,,Overcast,170,2013-06-26 03:21:00
11:58 PM,70.3,70.0,99,29.74,3.0,SW,4.6,-,0.00,,Overcast,220,2013-06-26 03:58:00